Tijuana, Mexico

11:45 AM PDT on July 26, 2016 (GMT -0700)
Tijuana

Weather History for 76001 - November, 2013

Change the Weather History Date:

Friday, November 15, 2013

  Actual Average Record
Temperature  
Mean Temperature 58 °F -  
Max Temperature 64 °F 68 °F - ()
Min Temperature 53 °F 47 °F - ()
Degree Days  
Heating Degree Days 6    
Growing Degree Days 8 (Base 50)    
Moisture  
Dew Point 52 °F    
Average Humidity 75    
Maximum Humidity 94    
Minimum Humidity 59    
Precipitation  
Precipitation 0.00 in - - ()
Sea Level Pressure  
Sea Level Pressure 29.80 in    
Wind  
Wind Speed 6 mph ()    
Max Wind Speed 21 mph    
Max Gust Speed -    
Visibility 5.7 miles    
Events Fog    
T = Trace of Precipitation, MM = Missing Value Source: Averaged Metar Reports

Daily Weather History Graph

Daily Weather History Graph

Search for Another Location

Airport or City:

Trip Planner

Search our weather history database for the weather conditions in past years. The results will help you decide how hot, cold, wet, or windy it might be!

Date:

Astronomy

Nov. 15, 2013 Rise Set
Actual Time 6:17 AM PST 4:46 PM PST
Civil Twilight 5:51 AM PST 5:12 PM PST
Nautical Twilight 5:22 AM PST 5:42 PM PST
Astronomical Twilight 4:52 AM PST 6:11 PM PST
Moon 3:42 PM PST (11/15) 4:24 AM PST (11/15)
Length of Visible Light 11h 21m
Length of Day
10h 28m
Waxing Gibbous, 97% of the Moon is Illuminated
Nov 15
Waxing Gibbous
Nov 17
Full
Nov 25
Last Quarter
Dec 2
New
Dec 9
First Quarter

Hourly Weather History & Observations

Time (PST) Temp. Dew Point Humidity Pressure Visibility Wind Dir Wind Speed Gust Speed Precip Events Conditions
12:48 AM 53.6 °F 50.0 °F 88% 29.83 in 0.1 mi North 6.9 mph - N/A Fog Fog
1:48 AM 53.6 °F 51.8 °F 94% 29.78 in 0.2 mi Calm Calm - N/A Fog Fog
2:42 AM 53.6 °F 51.8 °F 94% 29.80 in 5.0 mi North 5.8 mph - N/A   Scattered Clouds
3:43 AM 57.2 °F 53.6 °F 88% 29.81 in 5.0 mi Calm Calm - N/A   Mostly Cloudy
4:46 AM 59.0 °F 53.6 °F 82% 29.77 in 6.0 mi ESE 8.1 mph - N/A   Mostly Cloudy
5:43 AM 59.0 °F 53.6 °F 82% 29.78 in 6.0 mi ENE 5.8 mph - N/A   Mostly Cloudy
6:43 AM 60.8 °F 51.8 °F 72% 29.80 in 7.0 mi ESE 6.9 mph - N/A   Mostly Cloudy
7:52 AM 60.8 °F 51.8 °F 72% 29.79 in 7.0 mi SSE 10.4 mph - N/A   Mostly Cloudy
8:49 AM 62.6 °F 50.0 °F 63% 29.80 in 7.0 mi SE 11.5 mph - N/A   Overcast
9:43 AM 62.6 °F 51.8 °F 68% 29.81 in 8.0 mi South 16.1 mph - N/A   Overcast
10:43 AM 62.6 °F 51.8 °F 68% 29.81 in 7.0 mi South 17.3 mph - N/A   Overcast
11:40 AM 64.4 °F 50.0 °F 59% 29.78 in 8.0 mi SE 15.0 mph - N/A   Overcast
12:46 PM 64.4 °F 50.0 °F 59% 30.08 in 8.0 mi SSE 20.7 mph - N/A   Overcast
1:46 PM 64.4 °F 51.8 °F 64% 29.73 in 8.0 mi SSE 15.0 mph - N/A   Mostly Cloudy
2:46 PM 64.4 °F 51.8 °F 64% 29.74 in 7.0 mi South 9.2 mph - N/A   Overcast
3:48 PM 62.6 °F 51.8 °F 68% 29.77 in 7.0 mi SW 9.2 mph - N/A   Overcast
4:52 PM 60.8 °F 51.8 °F 72% 29.74 in 6.0 mi South 6.9 mph - N/A   Mostly Cloudy
5:48 PM 60.8 °F 51.8 °F 72% 29.77 in 6.0 mi Calm Calm - N/A   Overcast
6:23 PM 60.8 °F 51.8 °F 72% 29.77 in 5.0 mi Calm Calm - N/A   Light Drizzle
6:51 PM 59.0 °F 51.8 °F 77% 29.77 in 5.0 mi Calm Calm - N/A   Overcast
7:48 PM 59.0 °F 51.8 °F 77% 29.78 in 5.0 mi Calm Calm - N/A   Overcast
8:48 PM 59.0 °F 51.8 °F 77% 29.80 in 5.0 mi South 6.9 mph - N/A   Overcast
9:47 PM 59.0 °F 51.8 °F 77% 29.84 in 5.0 mi Calm Calm - N/A   Overcast
10:45 PM 59.0 °F 51.8 °F 77% 29.81 in 5.0 mi NNE 6.9 mph - N/A   Mostly Cloudy
11:44 PM 57.2 °F 50.0 °F 77% 29.81 in 5.0 mi SSW 3.5 mph - N/A   Mostly Cloudy